Red Bluff, CA

8:29 AM PDT on September 19, 2019 (GMT -0700)
Red Bluff Municipal

Weather History for KRBL - July, 2019

Change the Weather History Date:

Sunday, July 21, 2019

  Actual Average Record
Temperature  
Mean Temperature 80 °F -  
Max Temperature 97 °F 98 °F 112 °F (1938)
Min Temperature 64 °F 66 °F 55 °F (1940)
Cooling Degree Days 16    
Growing Degree Days 30 (Base 50)    
Moisture  
Dew Point 56 °F    
Average Humidity 45    
Maximum Humidity 78    
Minimum Humidity 12    
Precipitation  
Precipitation 0.00 in - - ()
Sea Level Pressure  
Sea Level Pressure 29.86 in    
Wind  
Wind Speed 4 mph (South)    
Max Wind Speed 14 mph    
Max Gust Speed 20 mph    
Visibility 10 miles    
Events      
Averages and records for this station are not official NWS values.
T = Trace of Precipitation, MM = Missing Value Source: NWS Daily Summary

Daily Weather History Graph

Daily Weather History Graph

Search for Another Location

Airport or City:

Astronomy

Jul. 21, 2019 Rise Set
Actual Time 5:57 AM PDT 8:33 PM PDT
Civil Twilight 5:25 AM PDT 9:04 PM PDT
Nautical Twilight 4:46 AM PDT 9:43 PM PDT
Astronomical Twilight 4:02 AM PDT 10:27 PM PDT
Moon 11:30 PM PDT (7/21) 10:22 AM PDT (7/21)
Length of Visible Light 15h 38m
Length of Day
14h 36m
Waning Gibbous, 79% of the Moon is Illuminated
Jul 21
Waning Gibbous
Jul 24
Last Quarter
Jul 31
New
Aug 7
First Quarter
Aug 15
Full

Hourly Weather History & Observations

Time (PDT) Temp. Heat Index Dew Point Humidity Pressure Visibility Wind Dir Wind Speed Gust Speed Precip Events Conditions
12:54 AM 72.0 °F - 62.1 °F 71% 29.84 in 10.0 mi Calm Calm - N/A   Clear
1:54 AM 71.1 °F - 61.0 °F 70% 29.85 in 10.0 mi Calm Calm - N/A   Clear
2:54 AM 68.0 °F - 59.0 °F 73% 29.86 in 10.0 mi WNW 3.5 mph - N/A   Clear
3:54 AM 68.0 °F - 59.0 °F 73% 29.86 in 10.0 mi Calm Calm - N/A   Clear
4:54 AM 66.0 °F - 57.9 °F 75% 29.86 in 10.0 mi North 3.5 mph - N/A   Clear
5:54 AM 64.9 °F - 57.9 °F 78% 29.87 in 10.0 mi NW 3.5 mph - N/A   Clear
6:54 AM 66.0 °F - 57.9 °F 75% 29.89 in 10.0 mi NW 4.6 mph - N/A   Clear
7:54 AM 75.0 °F - 57.9 °F 55% 29.89 in 10.0 mi Calm Calm - N/A   Clear
8:54 AM 79.0 °F - 55.0 °F 44% 29.90 in 10.0 mi Calm Calm - N/A   Clear
9:54 AM 84.0 °F 82.6 °F 54.0 °F 35% 29.89 in 10.0 mi WNW 3.5 mph - N/A   Clear
10:54 AM 87.1 °F 85.1 °F 54.0 °F 32% 29.88 in 10.0 mi ESE 3.5 mph - N/A   Clear
11:54 AM 89.1 °F 86.9 °F 54.0 °F 30% 29.87 in 10.0 mi ESE 5.8 mph - N/A   Clear
12:54 PM 91.0 °F 88.7 °F 54.0 °F 28% 29.86 in 10.0 mi South 5.8 mph - N/A   Clear
1:54 PM 93.0 °F 90.8 °F 54.0 °F 27% 29.86 in 10.0 mi Variable 4.6 mph - N/A   Clear
2:54 PM 96.1 °F 94.5 °F 55.9 °F 26% 29.85 in 10.0 mi SE 11.5 mph 16.1 mph N/A   Clear
3:54 PM 96.1 °F - 51.1 °F 22% 29.83 in 10.0 mi South 13.8 mph 19.6 mph N/A   Clear
4:54 PM 95.0 °F - 48.0 °F 20% 29.82 in 10.0 mi SSE 11.5 mph - N/A   Clear
5:54 PM 96.1 °F - 48.0 °F 19% 29.81 in 10.0 mi SSE 11.5 mph - N/A   Clear
6:54 PM 93.9 °F 92.2 °F 55.9 °F 28% 29.81 in 10.0 mi South 11.5 mph - N/A   Clear
7:54 PM 89.1 °F 88.2 °F 59.0 °F 36% 29.81 in 10.0 mi SSE 8.1 mph - N/A   Clear
8:54 PM 82.9 °F 82.6 °F 57.9 °F 42% 29.83 in 10.0 mi South 6.9 mph - N/A   Clear
9:54 PM 81.0 °F 81.7 °F 61.0 °F 50% 29.85 in 10.0 mi SSW 5.8 mph - N/A   Clear
10:54 PM 80.1 °F 81.2 °F 62.1 °F 54% 29.86 in 10.0 mi Calm Calm - N/A   Clear
11:54 PM 77.0 °F - 62.1 °F 60% 29.87 in 10.0 mi Calm Calm - N/A   Clear